Flag for U.S.A. Weather past 2 weeks in Vallejo, California, U.S.A.

Now
48 °F

Fog.


Feels Like: 48 °F
Forecast: 49 / 60 °F
Wind: No wind

Location: Napa County Airport

Current Time: Jan 27, 2015 at 4:57:22 AM

Latest Report: Jan 27, 2015 at 3:54 AM


Visibility: 6 mi

Pressure: 30.04 "Hg

Humidity: 93%

Dew point: 46 °F

Location of VallejoLocation

Historic Weather in Vallejo — Graph

°F

Vallejo temperature yesterday

Maximum temperature yesterday: 61 °F (at 2:54 PM)
Minimum temperature yesterday: 39 °F (at 1:54 AM)
Average temperature yesterday: 50 °F

Past Weeks' High & Low Weather Summary

 TemperatureHumidityPressure
High64 °F (Jan 13, 1:54 PM)100% (Jan 12, 3:54 AM)30.36 "Hg (Jan 12, 3:54 AM)
Low33 °F (Jan 21, 4:54 AM)45% (Jan 13, 1:54 PM)29.93 "Hg (Jan 26, 2:54 PM)
Average48 °F91%30.18 "Hg
* Reported Jan 12 3:54 AM — Jan 27 3:54 AM, Vallejo, Weather by CustomWeather, © 2014

Note: Actual official high and low records may vary slightly from our data, if they occured in-between our weather recording intervals... More about our weather records

Advertising

Vallejo weather history for previous 24 hours

 ConditionsComfort  
Time TempWeatherWind HumidityBarometerVisibility
3:54 AM
Jan 27
48 °FFog.No wind93%30.04 "Hg6 mi
2:54 AM50 °FClear.3 mph86%30.03 "Hg7 mi
1:54 AM50 °FClear.No wind89%30.01 "Hg7 mi
12:54 AM49 °FClear.No wind86%29.99 "Hg8 mi
11:54 PM
Jan 26
49 °FClear.No wind86%29.97 "Hg7 mi
10:54 PM48 °FClear.5 mph89%29.96 "Hg7 mi
9:54 PM52 °FClear.No wind86%29.96 "Hg8 mi
8:54 PM56 °FClear.7 mph72%29.96 "Hg9 mi
7:54 PM56 °FClear.8 mph72%29.95 "Hg9 mi
6:54 PM56 °FClear.8 mph75%29.96 "Hg9 mi
5:54 PM55 °FClear.5 mph80%29.95 "Hg8 mi
4:54 PM56 °FSunny.No wind77%29.94 "Hg7 mi
3:54 PM58 °FSunny.6 mph75%29.95 "Hg10 mi
2:54 PM61 °FSunny.8 mph67%29.93 "Hg8 mi
1:54 PM59 °FSunny.13 mph72%29.95 "Hg7 mi
12:54 PM58 °FSunny.10 mph70%29.97 "Hg9 mi
11:54 AM53 °FSunny.12 mph80%30.01 "Hg9 mi
10:54 AM50 °FSunny.13 mph83%30.03 "Hg8 mi
9:54 AM47 °FFog.8 mph90%30.03 "Hg6 mi
8:54 AM43 °FSunny.5 mph97%30.04 "Hg10 mi
7:54 AM41 °FFog.6 mph100%30.03 "Hg5 mi
6:54 AM43 °FClear.8 mph93%30.02 "Hg7 mi
5:54 AM42 °FFog.8 mph92%30.02 "Hg6 mi
4:54 AM44 °FClear.12 mph89%30.01 "Hg8 mi
Weather by CustomWeather, © 2014

See weather overviewHow to use our weather pages